KLM12B LFPG-EHAM

Flight info

Callsign KLM12B
Flight time 0h 45m
Altitude 30000
Route NURMO DCT CMB DCT VEKIN DCT ADUTO N873 FERDI Y18 DENUT
Aircraft B738/M-SDE2E3FGHIRWXY/LB1

Departure

Time 2026-05-06 20:30
Airport Charles de Gaulle International Airport (LFPG)

Arrival

Time 2026-05-06 21:16
Airport Amsterdam Airport Schiphol (EHAM)
Time Latitude Longitude Altitude Speed Heading
2026-05-06 20:16 49.00662 2.57584 352 ft 0 kts 249°
2026-05-06 20:21 49.00662 2.57585 351 ft 1 kts 249°
2026-05-06 20:22 49.00667 2.57606 351 ft 2 kts 249°
2026-05-06 20:22 49.00672 2.57625 351 ft 2 kts 249°
2026-05-06 20:22 49.00677 2.57646 350 ft 1 kts 276°
2026-05-06 20:22 49.00667 2.57669 350 ft 2 kts 332°
2026-05-06 20:23 49.00657 2.57674 350 ft 1 kts 359°
2026-05-06 20:23 49.00653 2.57674 350 ft 0 kts 354°
2026-05-06 20:24 49.00661 2.57673 350 ft 5 kts 354°
2026-05-06 20:25 49.00747 2.57673 350 ft 14 kts 18°
2026-05-06 20:25 49.00799 2.57793 350 ft 14 kts 84°
2026-05-06 20:25 49.00808 2.57980 347 ft 24 kts 85°
2026-05-06 20:25 49.00825 2.58246 342 ft 26 kts 86°
2026-05-06 20:26 49.00842 2.58529 336 ft 27 kts 82°
2026-05-06 20:26 49.00857 2.58836 333 ft 28 kts 87°
2026-05-06 20:26 49.00873 2.59160 336 ft 26 kts 86°
2026-05-06 20:26 49.00848 2.59403 335 ft 20 kts 152°
2026-05-06 20:27 49.00706 2.59423 336 ft 22 kts 175°
2026-05-06 20:27 49.00549 2.59444 336 ft 22 kts 175°
2026-05-06 20:27 49.00392 2.59463 334 ft 23 kts 176°
2026-05-06 20:27 49.00225 2.59485 331 ft 24 kts 175°
2026-05-06 20:28 49.00069 2.59503 322 ft 15 kts 175°
2026-05-06 20:28 48.99989 2.59624 316 ft 17 kts 86°
2026-05-06 20:28 49.00003 2.59839 317 ft 17 kts 86°
2026-05-06 20:28 49.00013 2.60044 318 ft 16 kts 85°
2026-05-06 20:29 49.00006 2.60207 317 ft 13 kts 121°
2026-05-06 20:29 48.99919 2.60234 317 ft 13 kts 200°
2026-05-06 20:29 48.99850 2.60141 317 ft 13 kts 230°
2026-05-06 20:29 48.99822 2.60012 317 ft 14 kts 265°
2026-05-06 20:30 48.99807 2.59693 316 ft 62 kts 267°
2026-05-06 20:30 48.99639 2.56909 654 ft 173 kts 265°
2026-05-06 20:30 48.99548 2.55207 1556 ft 161 kts 273°
2026-05-06 20:31 48.99496 2.53372 1881 ft 176 kts 271°
2026-05-06 20:31 48.99386 2.51323 2308 ft 189 kts 269°
2026-05-06 20:31 48.99270 2.49236 2662 ft 206 kts 269°
2026-05-06 20:31 48.99158 2.46960 3071 ft 220 kts 269°
2026-05-06 20:32 48.99033 2.44491 3430 ft 238 kts 268°
2026-05-06 20:32 48.98874 2.41646 3961 ft 251 kts 268°
2026-05-06 20:32 48.98702 2.38611 4501 ft 264 kts 268°
2026-05-06 20:32 48.98531 2.35589 5179 ft 269 kts 267°
2026-05-06 20:33 48.98432 2.32673 5860 ft 272 kts 273°
2026-05-06 20:33 48.98844 2.29633 6591 ft 273 kts 295°
2026-05-06 20:33 48.99935 2.27136 7324 ft 274 kts 314°
2026-05-06 20:33 49.01380 2.25190 8039 ft 275 kts 325°
2026-05-06 20:34 49.03073 2.23867 8746 ft 277 kts 344°
2026-05-06 20:34 49.05035 2.23534 9500 ft 279 kts
2026-05-06 20:34 49.07000 2.24052 10211 ft 283 kts 15°
2026-05-06 20:34 49.08928 2.25141 10678 ft 296 kts 22°
2026-05-06 20:35 49.10861 2.26478 11072 ft 310 kts 24°
2026-05-06 20:35 49.13062 2.28037 11508 ft 325 kts 24°
2026-05-06 20:35 49.15433 2.29686 11954 ft 341 kts 23°
2026-05-06 20:35 49.17717 2.31244 12531 ft 350 kts 23°
2026-05-06 20:36 49.19971 2.32770 13130 ft 356 kts 23°
2026-05-06 20:36 49.22246 2.34304 13837 ft 360 kts 23°
2026-05-06 20:36 49.24549 2.35848 14562 ft 364 kts 22°
2026-05-06 20:36 49.26848 2.37389 15271 ft 367 kts 22°
2026-05-06 20:37 49.29227 2.38988 15966 ft 371 kts 23°
2026-05-06 20:37 49.31845 2.40750 16711 ft 375 kts 23°
2026-05-06 20:37 49.34437 2.42501 17450 ft 379 kts 22°
2026-05-06 20:37 49.36849 2.44134 18064 ft 383 kts 22°
2026-05-06 20:38 49.39267 2.45776 18650 ft 388 kts 22°
2026-05-06 20:38 49.41769 2.47477 19260 ft 392 kts 22°
2026-05-06 20:38 49.44304 2.49199 19863 ft 396 kts 22°
2026-05-06 20:38 49.46794 2.50893 20447 ft 400 kts 22°
2026-05-06 20:39 49.49562 2.52780 21074 ft 404 kts 22°
2026-05-06 20:39 49.52228 2.54600 21667 ft 408 kts 22°
2026-05-06 20:39 49.54836 2.56382 22224 ft 412 kts 22°
2026-05-06 20:39 49.57527 2.58222 22772 ft 415 kts 22°
2026-05-06 20:40 49.60296 2.60118 23327 ft 419 kts 22°
2026-05-06 20:40 49.63168 2.62086 23845 ft 424 kts 22°
2026-05-06 20:40 49.66070 2.64077 24443 ft 426 kts 22°
2026-05-06 20:40 49.69014 2.66101 25027 ft 429 kts 24°
2026-05-06 20:41 49.71832 2.68041 25575 ft 431 kts 23°
2026-05-06 20:41 49.74641 2.69976 26125 ft 433 kts 24°
2026-05-06 20:41 49.77541 2.71977 26624 ft 437 kts 24°
2026-05-06 20:41 49.80322 2.73897 27090 ft 440 kts 24°
2026-05-06 20:42 49.83093 2.75953 27575 ft 442 kts 27°
2026-05-06 20:42 49.85763 2.78271 28047 ft 445 kts 30°
2026-05-06 20:42 49.88444 2.80829 28757 ft 442 kts 32°
2026-05-06 20:42 49.90980 2.83347 29584 ft 435 kts 32°
2026-05-06 20:43 49.93522 2.85904 29940 ft 435 kts 32°
2026-05-06 20:43 49.98589 2.90999 29943 ft 432 kts 32°
2026-05-06 20:44 50.03636 2.96045 29944 ft 433 kts 32°
2026-05-06 20:44 50.08686 3.01064 29940 ft 433 kts 32°
2026-05-06 20:45 50.13721 3.06061 29941 ft 433 kts 32°
2026-05-06 20:45 50.19000 3.11304 29948 ft 432 kts 32°
2026-05-06 20:46 50.24667 3.16522 29960 ft 431 kts 26°
2026-05-06 20:46 50.30115 3.20498 29962 ft 431 kts 23°
2026-05-06 20:47 50.35634 3.24263 29961 ft 433 kts 22°
2026-05-06 20:47 50.41123 3.28037 29960 ft 433 kts 23°
2026-05-06 20:48 50.46563 3.32113 29969 ft 435 kts 25°
2026-05-06 20:48 50.51924 3.36347 29964 ft 434 kts 25°
2026-05-06 20:49 50.57396 3.40347 29967 ft 434 kts 22°
2026-05-06 20:49 50.62933 3.44127 29968 ft 435 kts 22°
2026-05-06 20:50 50.68476 3.47891 29961 ft 435 kts 22°
2026-05-06 20:50 50.74459 3.51991 29961 ft 436 kts 22°
2026-05-06 20:51 50.80701 3.56306 29962 ft 436 kts 22°
2026-05-06 20:51 50.86266 3.60173 29963 ft 436 kts 22°
2026-05-06 20:52 50.92061 3.63378 29807 ft 429 kts 11°
2026-05-06 20:52 50.95204 3.64146 29436 ft 420 kts
2026-05-06 20:52 50.98154 3.64487 28999 ft 413 kts
2026-05-06 20:52 51.01035 3.64651 28647 ft 405 kts 360°
2026-05-06 20:53 51.03988 3.64761 28092 ft 402 kts 359°
2026-05-06 20:53 51.06831 3.64861 27536 ft 400 kts 360°
2026-05-06 20:53 51.09635 3.64976 26985 ft 398 kts 360°
2026-05-06 20:53 51.12470 3.65111 26406 ft 396 kts
2026-05-06 20:54 51.15233 3.65259 25826 ft 395 kts
2026-05-06 20:54 51.18135 3.65427 25230 ft 393 kts
2026-05-06 20:54 51.21122 3.65608 24566 ft 392 kts
2026-05-06 20:54 51.23926 3.65779 24020 ft 390 kts
2026-05-06 20:55 51.26635 3.65831 23972 ft 388 kts 358°
2026-05-06 20:55 51.29325 3.65765 23975 ft 396 kts 357°
2026-05-06 20:55 51.32087 3.65649 23972 ft 396 kts 357°
2026-05-06 20:55 51.34861 3.65524 23970 ft 395 kts 357°
2026-05-06 20:56 51.37570 3.65408 23778 ft 390 kts 357°
2026-05-06 20:56 51.40248 3.65301 23338 ft 386 kts 357°
2026-05-06 20:56 51.42956 3.65201 22713 ft 386 kts 357°
2026-05-06 20:56 51.45648 3.65107 22152 ft 384 kts 357°
2026-05-06 20:57 51.48285 3.65019 21672 ft 381 kts 358°
2026-05-06 20:57 51.50939 3.64933 21167 ft 377 kts 358°
2026-05-06 20:57 51.53518 3.64852 20673 ft 374 kts 358°
2026-05-06 20:57 51.56119 3.64772 20179 ft 371 kts 358°
2026-05-06 20:58 51.58664 3.64693 19683 ft 368 kts 358°
2026-05-06 20:58 51.61280 3.64613 19178 ft 364 kts 358°
2026-05-06 20:58 51.63877 3.64533 18671 ft 360 kts 357°
2026-05-06 20:58 51.66356 3.64457 18167 ft 357 kts 358°
2026-05-06 20:59 51.68822 3.64600 17640 ft 356 kts
2026-05-06 20:59 51.71194 3.65651 17078 ft 357 kts 24°
2026-05-06 20:59 51.73196 3.67895 16555 ft 356 kts 43°
2026-05-06 20:59 51.74744 3.71001 16036 ft 355 kts 55°
2026-05-06 21:00 51.76069 3.74311 15520 ft 352 kts 57°
2026-05-06 21:00 51.77364 3.77621 15012 ft 350 kts 57°
2026-05-06 21:00 51.78651 3.80919 14546 ft 346 kts 57°
2026-05-06 21:00 51.79924 3.84180 13925 ft 343 kts 57°
2026-05-06 21:01 51.81189 3.87412 13156 ft 337 kts 56°
2026-05-06 21:01 51.82410 3.90529 12749 ft 327 kts 56°
2026-05-06 21:01 51.83616 3.93610 12294 ft 325 kts 56°
2026-05-06 21:01 51.84820 3.96686 11753 ft 325 kts 56°
2026-05-06 21:02 51.86021 3.99755 11308 ft 323 kts 56°
2026-05-06 21:02 51.87219 4.02824 10817 ft 322 kts 57°
2026-05-06 21:02 51.88390 4.05825 10551 ft 314 kts 57°
2026-05-06 21:02 51.89531 4.08757 10428 ft 301 kts 57°
2026-05-06 21:03 51.90620 4.11566 10318 ft 289 kts 58°
2026-05-06 21:03 51.91509 4.14414 10152 ft 281 kts 68°
2026-05-06 21:03 51.92071 4.17399 10069 ft 275 kts 75°
2026-05-06 21:03 51.92507 4.20439 9825 ft 278 kts 76°
2026-05-06 21:04 51.92928 4.23463 9571 ft 274 kts 76°
2026-05-06 21:04 51.93364 4.26450 9311 ft 272 kts 75°
2026-05-06 21:04 51.93813 4.29392 9029 ft 271 kts 74°
2026-05-06 21:04 51.94275 4.32339 8744 ft 269 kts 74°
2026-05-06 21:05 51.94735 4.35259 8492 ft 267 kts 74°
2026-05-06 21:05 51.95190 4.38158 8240 ft 266 kts 74°
2026-05-06 21:05 51.95635 4.41018 7991 ft 264 kts 74°
2026-05-06 21:05 51.96086 4.43925 7734 ft 263 kts 74°
2026-05-06 21:06 51.96522 4.46752 7566 ft 256 kts 74°
2026-05-06 21:06 51.96948 4.49515 7414 ft 248 kts 74°
2026-05-06 21:06 51.97360 4.52183 7205 ft 244 kts 74°
2026-05-06 21:06 51.97768 4.54822 7026 ft 239 kts 74°
2026-05-06 21:07 51.98160 4.57379 6947 ft 230 kts 74°
2026-05-06 21:07 51.98535 4.59845 6811 ft 223 kts 74°
2026-05-06 21:07 51.98911 4.62306 6608 ft 221 kts 74°
2026-05-06 21:07 51.99276 4.64670 6524 ft 211 kts 74°
2026-05-06 21:08 51.99621 4.66896 6443 ft 200 kts 75°
2026-05-06 21:08 51.99948 4.69018 6324 ft 192 kts 75°
2026-05-06 21:08 52.00264 4.71105 6121 ft 190 kts 75°
2026-05-06 21:08 52.00664 4.73148 5876 ft 188 kts 60°
2026-05-06 21:09 52.01556 4.74601 5666 ft 185 kts 25°
2026-05-06 21:09 52.02807 4.75125 5403 ft 189 kts
2026-05-06 21:09 52.04103 4.75378 5104 ft 190 kts
2026-05-06 21:09 52.05436 4.75561 4834 ft 191 kts
2026-05-06 21:10 52.06760 4.75696 4564 ft 192 kts
2026-05-06 21:10 52.08081 4.75818 4291 ft 192 kts
2026-05-06 21:10 52.09414 4.75940 4017 ft 189 kts
2026-05-06 21:10 52.10708 4.76058 3732 ft 185 kts
2026-05-06 21:11 52.11951 4.76170 3468 ft 172 kts
2026-05-06 21:11 52.13087 4.76270 3259 ft 158 kts
2026-05-06 21:11 52.14160 4.76367 2988 ft 149 kts
2026-05-06 21:11 52.15157 4.76459 2801 ft 140 kts
2026-05-06 21:12 52.16127 4.76549 2616 ft 140 kts
2026-05-06 21:12 52.17081 4.76637 2420 ft 137 kts
2026-05-06 21:12 52.18018 4.76722 2286 ft 133 kts
2026-05-06 21:12 52.18961 4.76810 2041 ft 134 kts
2026-05-06 21:13 52.19877 4.76894 1854 ft 132 kts
2026-05-06 21:13 52.20785 4.76986 1676 ft 132 kts
2026-05-06 21:13 52.21708 4.77066 1494 ft 132 kts
2026-05-06 21:13 52.22622 4.77144 1328 ft 134 kts
2026-05-06 21:14 52.23556 4.77220 1119 ft 138 kts
2026-05-06 21:14 52.24483 4.77335 960 ft 137 kts
2026-05-06 21:14 52.25407 4.77399 761 ft 138 kts
2026-05-06 21:14 52.26336 4.77497 559 ft 138 kts
2026-05-06 21:15 52.27228 4.77582 397 ft 134 kts
2026-05-06 21:15 52.28147 4.77661 230 ft 134 kts
2026-05-06 21:15 52.29079 4.77741 39 ft 135 kts
2026-05-06 21:15 52.29918 4.77816 -1 ft 96 kts
2026-05-06 21:16 52.30417 4.77860 0 ft 50 kts
2026-05-06 21:16 52.30705 4.77886 0 ft 26 kts
2026-05-06 21:16 52.30883 4.77863 -1 ft 25 kts 340°
2026-05-06 21:16 52.31034 4.77744 0 ft 19 kts 333°
2026-05-06 21:17 52.31121 4.77663 0 ft 12 kts 316°
2026-05-06 21:17 52.31141 4.77537 -1 ft 12 kts 241°
2026-05-06 21:17 52.31063 4.77490 -1 ft 14 kts 184°
2026-05-06 21:17 52.30920 4.77477 0 ft 22 kts 183°
2026-05-06 21:18 52.30763 4.77464 -1 ft 22 kts 183°
2026-05-06 21:18 52.30642 4.77419 0 ft 17 kts 225°
2026-05-06 21:18 52.30577 4.77256 0 ft 17 kts 238°
2026-05-06 21:18 52.30514 4.77093 -1 ft 16 kts 238°
2026-05-06 21:19 52.30477 4.76996 0 ft 6 kts 238°
2026-05-06 21:19 52.30461 4.76954 0 ft 0 kts 238°
2026-05-06 21:19 52.30452 4.76930 -1 ft 9 kts 237°
2026-05-06 21:19 52.30402 4.76802 0 ft 14 kts 238°
2026-05-06 21:20 52.30360 4.76689 0 ft 7 kts 244°
2026-05-06 21:20 52.30365 4.76592 0 ft 10 kts 306°
2026-05-06 21:20 52.30423 4.76522 0 ft 10 kts 328°
2026-05-06 21:20 52.30481 4.76462 -1 ft 7 kts 328°
2026-05-06 21:21 52.30513 4.76457 0 ft 4 kts 44°
2026-05-06 21:21 52.30533 4.76504 -1 ft 4 kts 57°
2026-05-06 21:21 52.30537 4.76513 0 ft 0 kts 58°